History

Дата Что Операция ID Наименование
2020-08-12 06:15ПродуктДобавление649590Зажим Crosver ASM-7 натяжний для ВО кабелів
2020-08-12 06:15ПродуктРедактирование649576Скутер Razor A5 Air Silver (331054)
2020-08-12 06:15ПродуктРедактирование649575Скутер Razor A5 Air Black (318009)
2020-08-12 06:15ПродуктРедактирование649574Скутер Razor S Spark Scooter Красный (631100)
2020-08-12 06:15ПродуктРедактирование649551Корпус Vinga CS311P
2020-08-12 06:15ПродуктРедактирование649550Корпус Vinga CS311W
2020-08-12 06:15ПродуктРедактирование649549Корпус Vinga CS311G
2020-08-12 05:42ПродуктРедактирование649545Дисковая пила BOSCH циркулярная Professional GTS 635-216 (0.601.B42.000)
2020-08-12 05:42ПродуктРедактирование649544Дисковая пила BOSCH Professional GKS 55+ GCE (0.601.682.100)
2020-08-12 05:42ПродуктРедактирование649543Торцовочная пила BOSCH GCM 12 SDE Professional (0.601.B23.100)
2020-08-12 05:42ПродуктРедактирование649542Торцовочная пила EINHELL TC-MS 2112 (4300295)
2020-08-12 05:42ПродуктРедактирование649541Пистолет для полива Karcher с блокируещей кнопкой (2.645-265.0)
2020-08-12 05:42ПродуктРедактирование649540Пистолет для полива Karcher Premium (2.645-270.0)
2020-08-12 05:42ПродуктРедактирование649539Поливочный шланг Karcher HR 25 ,1/2", 15 м. на катушке (2.645-041.0)
2020-08-12 05:42ПродуктРедактирование649538Посудомоечная машина ZANUSSI ZDLN91511
2020-08-12 05:42ПродуктРедактирование649537Посудомоечная машина Gorenje GV52010
2020-08-12 05:42ПродуктРедактирование649536Посудомоечная машина BEKO DIS26022
2020-08-12 05:42ПродуктРедактирование649535Посудомоечная машина BEKO DIN36422
2020-08-12 05:42ПродуктРедактирование649534Посудомоечная машина CANDY CDI1L38/T
2020-08-12 05:42ПродуктРедактирование649533Посудомоечная машина BOSCH SME68TX26E
2020-08-12 05:42ПродуктРедактирование649532Пылесос строительный Makita CL121DZ (Без АКБ и ЗУ) (CL121DZ)
2020-08-12 05:42ПродуктРедактирование649531Пылесос строительный EINHELL TE-VC 18 Li Solo (Без АКБ и ЗУ) (2347120)
2020-08-12 05:42ПродуктРедактирование649530Пылесос строительный EINHELL TC-VC 18/20 Li S - Solo (Без АКБ и ЗУ) (2347130)
2020-08-12 05:42ПродуктРедактирование649529Пылесос строительный Karcher NT 30/1 Tact Te L (1.148-211.0)
2020-08-12 05:42ПродуктРедактирование649528Пылесос строительный Karcher NT 22/1 Ap Te (1.378-610.0)
2020-08-12 05:42ПродуктРедактирование649527Акустическая система JBL Flip 5 Eco Edition Forest Green (JBLFLIP5ECOGRN)
2020-08-12 05:42ПродуктРедактирование649526Акустическая система JBL Flip 5 Eco Edition Ocean Blue (JBLFLIP5ECOBLU)
2020-08-12 05:42ПродуктРедактирование649525Процессор серверный Dell Xeon Silver 4210R 10C/20T/2.40GHz/13.75MB/FCLGA3647/OEM (338-BVKD)
2020-08-12 05:42ПродуктРедактирование649524Коляска Thule Chariot Cross2 Blue (TH10202013)
2020-08-12 05:42ПродуктРедактирование649523Холодильник LG RF59FG-P50026
2020-08-12 05:42ПродуктРедактирование649522Холодильник LG RF59FB-P5CB270
2020-08-12 05:42ПродуктРедактирование649521Холодильник ELENBERG MR 84
2020-08-12 05:42ПродуктРедактирование649520Кабель мультимедийный Jack 3.5mm to 2хRCA 2.5m Cablexpert (CCA-352-2.5M)
2020-08-12 05:42ПродуктРедактирование649519Пылесос садовый BOSCH Universal Garden Tidy (0.600.8B1.000)
2020-08-12 05:42ПродуктРедактирование649518Стиральная машина LG F4V9RC9P
2020-08-12 05:42ПродуктРедактирование649517Стиральная машина LG F2V9GC9W
2020-08-12 05:42ПродуктРедактирование649516Модуль памяти для ноутбука SoDIMM DDR4 4GB 2400 MHz Apacer (AS04GGB24CETBGC)
2020-08-12 05:42ПродуктРедактирование649515Ноутбук Apple MacBook Pro TB A2141 (Z0XZ0079A)
2020-08-12 05:42ПродуктРедактирование649514Воздуходувка EINHELL Einhell GC-EL 3000 E (3433320)
2020-08-12 05:42ПродуктРедактирование649513Перфоратор BOSCH GBH 180-LI аккумуляторный + ЗУ GAL 18V-41 (0.615.990.L6J)
2020-08-12 05:42ПродуктРедактирование649512Триммер садовый Makita UR100DWAE
2020-08-12 05:42ПродуктРедактирование649511Триммер садовый Makita UR3500
2020-08-12 05:42ПродуктРедактирование649510Риббон TAMA WAX/Resin 84mm x 100m втулка 12.7мм (12914)
2020-08-12 05:42ПродуктРедактирование649509Риббон TAMA WAX/Resin 55mm x 100m втулка 110mm
2020-08-12 05:42ПродуктРедактирование649508Стартовый пакет lifecell Iнтернет БЕЗМЕЖ (SP-INT-BEZMEZH)
2020-08-12 05:42ПродуктРедактирование649507Многофункциональный инструмент Dremel 7760-15 Lite (F.013.776.0JD)
2020-08-12 05:42ПродуктРедактирование649479Ноутбук Lenovo ThinkPad X13 (20UF000RRT)
2020-08-12 05:42ПродуктРедактирование649478Ноутбук Lenovo ThinkPad T15 (20S6002ERT)
2020-08-12 05:42ПродуктРедактирование649477Ноутбук Lenovo ThinkPad T14s (20T0001YRT)
2020-08-12 05:42ПродуктРедактирование649476Ноутбук Lenovo ThinkPad T14s (20T0001DRT)
2020-08-12 05:42ПродуктРедактирование649475Ноутбук Lenovo ThinkPad T14s (20T00015RT)
2020-08-12 05:42ПродуктРедактирование649474Ноутбук Lenovo ThinkPad T14 (20UD0013RT)
2020-08-12 05:42ПродуктРедактирование649473Ноутбук Lenovo ThinkPad T14 (20UD0012RT)
2020-08-12 05:42ПродуктРедактирование649472Ноутбук Lenovo ThinkPad T14 (20UD0010RT)
2020-08-12 05:42ПродуктРедактирование649471Ноутбук HP Probook 455 G7 (2D239EA)
2020-08-12 05:42ПродуктРедактирование649470Ноутбук HP 255 G7 (150A3EA)
2020-08-12 05:42ПродуктРедактирование649469Ноутбук HP Pavilion x360 (1S7P2EA)
2020-08-12 05:42ПродуктРедактирование649468Ноутбук HP Pavilion x360 (1S7P0EA)
2020-08-12 05:42ПродуктРедактирование649467Ноутбук HP Pavilion 17 Gaming (1A8P8EA)
2020-08-12 05:42ПродуктРедактирование649466Ноутбук HP Pavilion 17 Gaming (1A8P5EA)
2020-08-12 05:42ПродуктРедактирование649465Ноутбук HP Pavilion 17 Gaming (1A8P7EA)
2020-08-12 05:42ПродуктРедактирование649464Ноутбук HP Pavilion 17 Gaming (1A8P3EA)
2020-08-12 05:42ПродуктРедактирование649463Ноутбук HP Pavilion 17 Gaming (13F08EA)
2020-08-12 05:42ПродуктРедактирование649462Ноутбук HP Pavilion 17 Gaming (1A8P6EA)
2020-08-12 05:42ПродуктРедактирование649461Ноутбук HP Pavilion 17 Gaming (1A8P4EA)
2020-08-12 05:42ПродуктРедактирование649460Ноутбук HP Pavilion 17 Gaming (13F14EA)
2020-08-12 05:42ПродуктРедактирование649459Ноутбук HP Pavilion 17 Gaming (1A8P9EA)
2020-08-12 05:42ПродуктРедактирование649458Ноутбук HP Pavilion 17 Gaming (13F16EA)
2020-08-12 05:42ПродуктРедактирование649457Ноутбук HP Pavilion 17 Gaming (13F20EA)
2020-08-12 05:42ПродуктРедактирование649456Ноутбук HP Pavilion 15 Gaming (103R6EA)
2020-08-12 05:42ПродуктРедактирование649455Ноутбук HP Pavilion 15 Gaming (10B20EA)
2020-08-12 05:42ПродуктРедактирование649454Ноутбук HP Pavilion 15 Gaming (10B19EA)
2020-08-12 05:42ПродуктРедактирование649453Ноутбук HP Pavilion 15 Gaming (15C52EA)
2020-08-12 05:42ПродуктРедактирование649452Ноутбук HP Pavilion 15 Gaming (10B16EA)
2020-08-12 05:42ПродуктРедактирование649451Ноутбук HP Pavilion 15 Gaming (16D72EA)
2020-08-12 05:42ПродуктРедактирование649450Ноутбук HP Pavilion 15 Gaming (16D73EA)
2020-08-12 05:42ПродуктРедактирование649449Ноутбук HP Pavilion 15 Gaming (16D71EA)
2020-08-12 05:42ПродуктРедактирование649448Ноутбук HP Pavilion 15 Gaming (16D75EA)
2020-08-12 05:42ПродуктРедактирование649447Ноутбук HP OMEN X (9PU26EA)
2020-08-12 05:42ПродуктРедактирование649446Ноутбук HP OMEN X (9PU25EA)
2020-08-12 05:42ПродуктРедактирование649445Ноутбук HP OMEN 15-dh1014ur (1E1Z4EA)
2020-08-12 05:42ПродуктРедактирование649444Ноутбук HP OMEN 15-dc1055ur (7QF00EA)
2020-08-12 05:42ПродуктРедактирование649443Ноутбук HP ENVY x360 15-ed0008ur (15V23EA)
2020-08-12 05:42ПродуктРедактирование649442Ноутбук HP ENVY x360 15-ed0007ur (15C91EA)
2020-08-12 05:42ПродуктРедактирование649441Ноутбук HP ENVY x360 15-ed0006ur (15C89EA)
2020-08-12 05:42ПродуктРедактирование649440Ноутбук HP ENVY x360 15-ed0005ur (155M5EA)
2020-08-12 05:42ПродуктРедактирование649439Ноутбук HP ENVY x360 15-ed0003ur (155M1EA)
2020-08-12 05:42ПродуктРедактирование649438Ноутбук HP ENVY x360 15-ed0002ur (1L6G0EA)
2020-08-12 05:42ПродуктРедактирование649437Ноутбук HP ENVY x360 15-ed0000ur (1L6F8EA)
2020-08-12 05:42ПродуктРедактирование649436Ноутбук HP ENVY 17-cg0002ur (1L6J8EA)
2020-08-12 05:42ПродуктРедактирование649435Ноутбук HP ENVY 17-cg0001ur (1L6J7EA)
2020-08-12 05:42ПродуктРедактирование649434Ноутбук HP ENVY 15-ep0023ur (1L6G7EA)
2020-08-12 05:42ПродуктРедактирование649433Ноутбук HP ENVY 13-ba0007ur (15S08EA)
2020-08-12 05:42ПродуктРедактирование649432Ноутбук HP ENVY 13-ba0006ur (15C94EA)
2020-08-12 05:42ПродуктРедактирование649431Ноутбук HP ENVY 13-ba0005ur (15C90EA)
2020-08-12 05:42ПродуктРедактирование649430Ноутбук HP ENVY 13-ba0003ur (1E1U6EA)
2020-08-12 05:42ПродуктРедактирование649429Ноутбук HP ENVY 13-ba0001ur (1E1U4EA)
2020-08-12 05:42ПродуктРедактирование649428Ноутбук HP 15-dw2045ur (15C84EA)
2020-08-12 05:42ПродуктРедактирование649427Ноутбук HP 15-dw2044ur (15C83EA)
2020-08-12 05:42ПродуктРедактирование649426Ноутбук HP 15-dw2042ur (15C80EA)
Для того чтобы иметь возможность просматривать историю дальше необходимо быть зарегистрированным пользователем с указанными данными для подключения к Brain API. Перейти в профиль.